Regional Weather Roundup
Issued by NWS

Home | Current Version | Previous Version | Graphics & Text | Print | Product List | Glossary On
Versions: 1 2 3 4 5 6 7 8 9 10 11 12 13 14 15 16 17 18 19 20 21 22 23 24 25 26 27 28 29 30 31 32 33 34 35 36 37 38 39 40 41 42 43 44 45 46 47 48 49 50
000
ASUS43 KOAX 291510
RWRNE

WEATHER ROUNDUP FOR NEBRASKA
NATIONAL WEATHER SERVICE OMAHA NE
1000 AM CDT TUE JUL 29 2014

NOTES: SATELLITE DATA IS BEING USED TO AUGMENT CLOUD COVER ABOVE
       12000 FEET.
       "FAIR" INDICATES FEW OR NO CLOUDS BELOW 12,000 FEET WITH NO
       SIGNIFICANT WEATHER AND/OR OBSTRUCTIONS TO VISIBILITY.

  * THESE STATIONS DO NOT REPORT WEATHER SUCH AS RAIN...SNOW OR FOG.

NEZ001>004-019>022-054>056-291600-
NEBRASKA PANHANDLE

CITY           SKY/WX    TMP DP  RH WIND       PRES   REMARKS
SCOTTSBLUFF    CLOUDY    62  58  86 E5        30.28R
ALLIANCE       SUNNY     68  56  65 E8        30.27R
CHADRON        PTSUNNY   64  55  72 NE6       30.26F
KIMBALL        SUNNY     68  59  73 E7        30.27R
SIDNEY         SUNNY     67  57  70 E10       30.27R
$$

NEZ057>060-069>072-079>082-291600-
SOUTHWEST NEBRASKA

CITY           SKY/WX    TMP DP  RH WIND       PRES   REMARKS
NORTH PLATTE   PTSUNNY   63  56  78 SE10      30.24F
IMPERIAL       MOSUNNY   68  57  68 E10       30.24R
LEXINGTON      PTSUNNY   65  57  74 SE6       30.26F
MCCOOK         SUNNY     71  57  61 SE10      30.24R
OGALLALA       SUNNY     65  57  73 E10       30.25S
$$

NEZ005>010-023>029-035>040-094-291600-
NORTH CENTRAL NEBRASKA

CITY           SKY/WX    TMP DP  RH WIND       PRES   REMARKS
VALENTINE      MOSUNNY   70  58  65 SW7       30.26R
AINSWORTH      PTSUNNY   68  57  68 S5        30.26R
BROKEN BOW     PTSUNNY   68  58  70 S8        30.26S
O`NEILL        MOSUNNY   69  53  57 CALM      30.25S
ORD            CLOUDY    66  58  75 SW5       30.24S
THEDFORD       PTSUNNY   68  58  69 S12       30.27S
$$

NEZ041-046>049-061>064-073>077-083>087-291600-
SOUTH CENTRAL NEBRASKA

CITY           SKY/WX    TMP DP  RH WIND       PRES   REMARKS
GRAND ISLAND   PTSUNNY   69  56  62 SW5       30.25S
AURORA         PTSUNNY   69  58  67 CALM      30.25R
HASTINGS       CLOUDY    67  56  67 S5        30.25S
HEBRON         CLOUDY    67  56  68 CALM      30.23S
HOLDREGE       PTSUNNY   68  53  59 SE8       30.26R
KEARNEY *      MOSUNNY   68  55  64 SE7       30.26R
YORK           MOSUNNY   70  59  68 SW5       30.24S
$$

NEZ011>018-030>034-042>045-291600-
NORTHEAST NEBRASKA

CITY           SKY/WX    TMP DP  RH WIND       PRES   REMARKS
NORFOLK        SUNNY     70  56  61 VRB5      30.23S
ALBION         SUNNY     67  54  62 CALM      30.25R
BLAIR          SUNNY     68  59  71 CALM      30.21F
COLUMBUS *     SUNNY     48 N/A N/A CALM      30.23S
FREMONT        SUNNY     70  60  70 NW3       30.22S
TEKAMAH        SUNNY     70  59  68 N5        30.22S
WAYNE          MOSUNNY   66  59  77 N3        30.24S
$$

NEZ050>053-065>068-078-088>093-291600-
SOUTHEAST NEBRASKA

CITY           SKY/WX    TMP DP  RH WIND       PRES   REMARKS
LINCOLN        PTSUNNY   72  57  59 CALM      30.22F
OMAHA EPPLEY   MOSUNNY   70  59  68 N6        30.22R
BEATRICE       PTSUNNY   70  59  69 NW5       30.22S
FALLS CITY     MOSUNNY   73  60  63 VRB3      30.19S
NEBRASKA CITY  SUNNY     70  59  69 N3        30.21S
PLATTSMOUTH    SUNNY     69  59  69 N3        30.21S
$$

NEZ044-045-051>053-067-291600-
OMAHA AREA

CITY           SKY/WX    TMP DP  RH WIND       PRES   REMARKS
OMAHA EPPLEY   MOSUNNY   70  59  68 N6        30.22R
BLAIR          SUNNY     68  59  71 CALM      30.21F
FREMONT        SUNNY     70  60  70 NW3       30.22S
MILLARD        SUNNY     71  60  67 NW3       30.21S
OFFUTT AFB     SUNNY     72  64  77 CALM      30.20S
PLATTSMOUTH    SUNNY     69  59  69 N3        30.21S
WAHOO          FAIR      70  61  72 CALM      30.22S
$$



USA.gov is the U.S. government's official web portal to all federal, state and local government web resources and services.